星链-31012 (STARLINK-31012 )

导读

STARLINK-31012是美国SpaceX公司星链(Starlink)星座中的一颗卫星,于2023年12月8日发射入轨。星链项目旨在构建全球卫星互联网星座,为全球偏远地区、海洋等网络覆盖薄弱区域提供高速互联网接入服务,STARLINK-31012加入后进一步扩充了星链星座的服务覆盖能力与网络容量。

Basic Information
目录编号:
58531
目录名称:
STARLINK-31012
国际标识:
2023-192A
轨道中心:
EARTH
卫星名称:
星链-31012
卫星全名:
星链-31012 (STARLINK-31012 )
卫星状态:
在轨 (已飞行1001 天)
发射日期:
2023-12-08 UTC
国别 :
美国 (US)
星等 :
--
Orbit Information
数据来源 国际轨道数据
星历时间: 2026-09-04T00:09:35+0800
15小时前
查看轨道信息
半长轴: 6840.867km
偏心率: 0.0001333
轨道倾角: 53.161°
近地点辐角 74.930°
升交点赤经 314.033°
平近点角 285.185°
近地点: 461.818km
远地点: 463.642km
周期: 93.848分钟
每日圈数: 15.343912
Detailed Information
固有亮度:
5
最大亮度:
0.3
卫星平台:
Starlink v2.0 mini
覆盖范围:
全球
运营商:
太空探索技术公司
运营商所在国:
美国
制造商(研发单位):
太空探索技术公司
制造商所在国:
美国
使用方式:
暂无
Satellite Introduction
星链(Starlink)计划是由太空探索技术公司(SpaceX)提出的一个巨型低轨卫星互联网星座项目,计划在2019年至2024年间在太空搭建由约1.2万颗卫星组成的“星链”网络,其中1584颗将部署在地球上空550千米处的近地轨道,并从2020年开始工作。该卫星仍在工作。
2D Orbit Map
3D Orbit Map
Orbit Altitude Analysis Chart
Orbit Inclination Analysis Chart
Orbit Comprehensive Analysis Chart
View Comprehensive Chart
Conjunction Data List
Event ID Objects TCA Miss Dist (km) Collision Risk Probability Collision Risk Index (CRI) Action
CDM_260902-075005-853106-662621
2026-09-02T
07:50:02+0000
0.250 km
中距离
4.959487E-4 高风险 0.89
CDM_260905-085205-853106-895221
2026-09-05T
08:52:39+0000
0.743 km
远距离
6.218988E-5 中风险 0.71
CDM_260904-232505-853106-476021
2026-09-04T
23:25:12+0000
0.849 km
远距离
4.123946E-5 中风险 0.67
CDM_260904-155105-702305-853122
OBJECT V (57023)
2026-09-04T
15:51:40+0000
1.059 km
极远距离
1.470425E-5 中风险 0.58
CDM_260905-071805-853106-895221
2026-09-05T
07:18:52+0000
1.381 km
极远距离
7.666832E-6 低风险 0.53
CDM_260906-100403-376505-853121
2026-09-06T
10:04:30+0000
1.601 km
极远距离
2.462866E-6 低风险 0.43
CDM_260904-172505-702305-853122
OBJECT V (57023)
2026-09-04T
17:25:33+0000
1.985 km
极远距离
2.021704E-6 低风险 0.41
CDM_260905-005805-853106-476021
2026-09-05T
00:58:59+0000
2.293 km
极远距离
1.851354E-6 低风险 0.4
CDM_260905-102605-853106-895221
2026-09-05T
10:26:27+0000
2.555 km
极远距离
1.495072E-6 低风险 0.38
CDM_260905-050905-702305-853121
OBJECT V (57023)
2026-09-05T
05:09:32+0000
2.298 km
极远距离
1.477324E-6 低风险 0.38